Skip Page Navigation
NASA JPL Caltech
NASA Logo - Jet Propulsion Laboratory + View the NASA Portal
+ Near-Earth Object (NEO) Program
Search JPL
JPL Home Earth Solar System Stars & Galaxies Technology
JPL Solar System Dynamics
BODIES ORBITS EPHEMERIDES TOOLS PHYSICAL DATA DISCOVERY FAQ SITE MAP
JPL Small-Body Database Browser
Search: [ help ]  
37141 Povolny (2000 VZ38)
Classification: Main-belt Asteroid          SPK-ID: 2037141
Ephemeris | Orbit Diagram | Orbital Elements | Physical Parameters | Discovery Circumstances ]

[ show orbit diagram ]
Orbital Elements at Epoch 2456400.5 (2013-Apr-18.0) TDB
Reference: MPO250569 (heliocentric ecliptic J2000)
 Element Value Uncertainty (1-sigma)   Units 
e 0.1027877 n/a  
a 2.4307199 n/a AU
q 2.1808718 n/a AU
i 7.24650 n/a deg
node 120.99202 n/a deg
peri 139.30872 n/a deg
M 235.10434 n/a deg
tp 2456880.7259609
(2014-Aug-11.22596090)
n/a JED
period 1384.2061920
3.79
n/a
n/a
d
yr
n 0.26007686 n/a deg/d
Q 2.6805680 n/a AU
  Orbit Determination Parameters
   # obs. used (total)      314  
   first obs. used      1998-??-??  
   last obs. used      2013-01-14  
   # oppositions      12  
   planetary ephem.      DE403  
   condition code      0  
   fit RMS      0.57  
   data source      MPC:mpn  
   producer      MPCLINUX  

Additional Information
 T_jup = 3.490 

Ephemeris | Orbit Diagram | Orbital Elements | Physical Parameters | Discovery Circumstances ]

Physical Parameter Table
Parameter Symbol Value Units Sigma Reference Notes
absolute magnitude H 15.8 mag n/a PDS3 (MPO 24807)  

37141 Povolný           Discovered 2000 Nov. 2 by P. Pravec at Ondrejov.
Dalibor Povolný (b. 1924), a Czech biologist, is an expert on butterflies and diptera. He has catalogued hundreds of new taxons. Among his many other interests are evolution and ecology. He has organized funding support for students in postgraduate university education programs.
NOTE: some special characters may not display properly (any characters within {} are an attempt to place the proper accent above a character)
Reference: 20030318/MPCPages.arcLast Updated: 2003-10-02

Alternate Designations
 2000 VZ38 = 1998 BR37 = 1999 LK13 
Ephemeris | Orbit Diagram | Orbital Elements | Physical Parameters | Discovery Circumstances ]
ABOUT SSD CREDITS/AWARDS PRIVACY/COPYRIGHT GLOSSARY LINKS
FirstGov 2013-May-22 05:22 UT
(server date/time)  
NASA Home Page
Site Manager:   Donald K. Yeomans
Webmaster  Alan B. Chamberlin